Starlink 35677

operational
NORAD ID: 66221 Int'l Des: 2025-244 Owner: SPXS Country: US Constellation: starlink
NOTLE

Über Starlink 35677

Beschreibung wird geladen...

Live-Position

3D-Globus wird geladen...

Nächste Überflüge

Höhenverlauf

Altitude vs Time

uPlot chart will show altitude changes over time

Zweizeiliger Elementsatz

1 66221C 25244Q 25301.73590278 .02638700 00000+0 38292-2 0 3014
2 66221 53.1571 134.1026 0010814 272.8039 315.0622 16.01851375 10
Epoch: 28. Okt. 2025 • Age: 83 hours

Aktueller Status

Höhe 217.1 km
Geschwindigkeit 7.78 km/s
Subsatellitenpunkt -20.87°S, 109.77°E
Startdatum 28. Okt. 2025
Alter 3 days
Typ internet

Technische Details

Klassifizierung Payload
Masse 575.00 kg
Trockenmasse 530.00 kg
Gesamtmasse 575.00 kg
Länge 0.30 m
Durchmesser 4.10 m
Spannweite 29.00 m
Form Box + pan
Hersteller SPXS
Bus-Typ Starlink V2MO
Phasenstatus In Orbit
Besitzer/Staat SPXS/US

Große Konstellationen

Loading constellations...